Previsão horária em Aljezur Municipality

Hoje, 16 Junho, Quarta-feira

Tempo Temperatura Precipitação Vento Pressão Humidade
00:00 +18°C° 0 mm 2 m/s 750 mmHg 88%
01:00 +17°C° 0 mm 2 m/s 750 mmHg 90%
02:00 +16°C° 0 mm 3 m/s 750 mmHg 92%
03:00 +17°C° 0 mm 3 m/s 750 mmHg 90%
04:00 +17°C° 0 mm 3 m/s 750 mmHg 88%
05:00 +17°C° 0 mm 2 m/s 750 mmHg 86%
06:00 +18°C° 0 mm 2 m/s 750 mmHg 80%
07:00 +19°C° 0 mm 2 m/s 750 mmHg 74%
08:00 +21°C° 0 mm 2 m/s 750 mmHg 68%
09:00 +21°C° 0 mm 3 m/s 750 mmHg 65%
10:00 +22°C° 0 mm 3 m/s 750 mmHg 62%
11:00 +24°C° 0 mm 3 m/s 750 mmHg 59%
12:00 +25°C° 0 mm 3 m/s 750 mmHg 56%
13:00 +25°C° 0 mm 4 m/s 750 mmHg 53%
14:00 +26°C° 0 mm 4 m/s 749 mmHg 50%
15:00 +25°C° 0 mm 4 m/s 749 mmHg 53%
16:00 +23°C° 0 mm 4 m/s 749 mmHg 56%
17:00 +23°C° 0 mm 4 m/s 749 mmHg 59%
18:00 +21°C° 0 mm 3 m/s 749 mmHg 65%
19:00 +20°C° 0 mm 3 m/s 750 mmHg 72%
20:00 +18°C° 0 mm 2 m/s 750 mmHg 78%
21:00 +18°C° 0 mm 2 m/s 750 mmHg 79%
22:00 +18°C° 0 mm 2 m/s 750 mmHg 80%
23:00 +18°C° 0 mm 2 m/s 750 mmHg 80%

Amanhã, 17 Junho, Quinta-feira

Tempo Temperatura Precipitação Vento Pressão Humidade
00:00 +18°C° 0 mm 2 m/s 749 mmHg 80%
01:00 +18°C° 0 mm 2 m/s 749 mmHg 80%
02:00 +18°C° 0 mm 2 m/s 749 mmHg 79%
03:00 +18°C° 0 mm 2 m/s 749 mmHg 80%
04:00 +18°C° 0 mm 2 m/s 749 mmHg 80%
05:00 +18°C° 0 mm 2 m/s 749 mmHg 80%
06:00 +19°C° 0.1 mm 3 m/s 749 mmHg 80%
07:00 +19°C° 0.1 mm 3 m/s 750 mmHg 79%
08:00 +19°C° 0.1 mm 4 m/s 750 mmHg 79%
09:00 +21°C° 0 mm 4 m/s 750 mmHg 73%
10:00 +22°C° 0 mm 5 m/s 750 mmHg 67%
11:00 +23°C° 0 mm 5 m/s 750 mmHg 61%
12:00 +23°C° 0 mm 6 m/s 750 mmHg 60%
13:00 +23°C° 0 mm 6 m/s 750 mmHg 59%
14:00 +23°C° 0 mm 7 m/s 750 mmHg 57%
15:00 +22°C° 0 mm 7 m/s 750 mmHg 61%
16:00 +21°C° 0 mm 7 m/s 750 mmHg 64%
17:00 +21°C° 0 mm 7 m/s 750 mmHg 68%
18:00 +18°C° 0 mm 7 m/s 751 mmHg 75%
19:00 +17°C° 0 mm 7 m/s 751 mmHg 81%
20:00 +16°C° 0 mm 7 m/s 751 mmHg 88%
21:00 +15°C° 0.1 mm 7 m/s 751 mmHg 89%
22:00 +15°C° 0.1 mm 6 m/s 751 mmHg 89%
23:00 +14°C° 0.1 mm 5 m/s 751 mmHg 90%

Depois de amanhã, 18 Junho, Sexta-feira

Tempo Temperatura Precipitação Vento Pressão Humidade
00:00 +14°C° 0 mm 5 m/s 751 mmHg 90%
01:00 +14°C° 0 mm 5 m/s 751 mmHg 90%
02:00 +14°C° 0 mm 5 m/s 750 mmHg 91%
03:00 +14°C° 0 mm 5 m/s 751 mmHg 91%
04:00 +14°C° 0 mm 5 m/s 751 mmHg 91%
05:00 +14°C° 0 mm 4 m/s 751 mmHg 91%
06:00 +15°C° 0 mm 4 m/s 751 mmHg 82%
07:00 +18°C° 0 mm 4 m/s 751 mmHg 73%
08:00 +19°C° 0 mm 4 m/s 751 mmHg 65%
09:00 +20°C° 0 mm 5 m/s 751 mmHg 61%
10:00 +21°C° 0 mm 5 m/s 751 mmHg 57%
11:00 +22°C° 0 mm 5 m/s 751 mmHg 53%
12:00 +22°C° 0 mm 6 m/s 751 mmHg 54%
13:00 +22°C° 0 mm 6 m/s 751 mmHg 55%
14:00 +22°C° 0 mm 6 m/s 750 mmHg 56%
15:00 +21°C° 0 mm 6 m/s 750 mmHg 61%
16:00 +20°C° 0 mm 7 m/s 750 mmHg 65%
17:00 +18°C° 0 mm 8 m/s 750 mmHg 70%
18:00 +17°C° 0 mm 8 m/s 751 mmHg 75%
19:00 +16°C° 0 mm 8 m/s 751 mmHg 81%
20:00 +16°C° 0 mm 8 m/s 751 mmHg 86%
21:00 +15°C° 0 mm 8 m/s 751 mmHg 86%
22:00 +15°C° 0 mm 8 m/s 751 mmHg 87%
23:00 +15°C° 0 mm 7 m/s 751 mmHg 87%

19 Junho, Sábado

Tempo Temperatura Precipitação Vento Pressão Humidade
00:00 +15°C° 0 mm 7 m/s 751 mmHg 88%
01:00 +15°C° 0 mm 7 m/s 751 mmHg 88%
02:00 +14°C° 0 mm 6 m/s 751 mmHg 88%
03:00 +15°C° 0 mm 6 m/s 751 mmHg 87%
04:00 +15°C° 0 mm 6 m/s 751 mmHg 86%
05:00 +15°C° 0 mm 6 m/s 752 mmHg 84%
06:00 +16°C° 0.1 mm 7 m/s 752 mmHg 80%
07:00 +17°C° 0.1 mm 7 m/s 752 mmHg 75%
08:00 +18°C° 0.1 mm 7 m/s 752 mmHg 70%
09:00 +18°C° 0.1 mm 7 m/s 752 mmHg 66%
10:00 +20°C° 0.1 mm 7 m/s 753 mmHg 61%
11:00 +21°C° 0.1 mm 7 m/s 753 mmHg 56%
12:00 +21°C° 0 mm 7 m/s 753 mmHg 55%
13:00 +21°C° 0 mm 6 m/s 753 mmHg 53%
14:00 +21°C° 0 mm 6 m/s 753 mmHg 52%
15:00 +21°C° 0 mm 6 m/s 753 mmHg 55%
16:00 +20°C° 0 mm 6 m/s 753 mmHg 58%
17:00 +19°C° 0 mm 6 m/s 753 mmHg 61%
18:00 +17°C° 0 mm 6 m/s 753 mmHg 66%
19:00 +16°C° 0 mm 5 m/s 754 mmHg 71%
20:00 +15°C° 0 mm 5 m/s 754 mmHg 77%
21:00 +14°C° 0 mm 5 m/s 754 mmHg 79%
22:00 +14°C° 0 mm 4 m/s 754 mmHg 81%
23:00 +13°C° 0 mm 4 m/s 754 mmHg 83%

20 Junho, Domingo

Tempo Temperatura Precipitação Vento Pressão Humidade
00:00 +13°C° 0 mm 4 m/s 754 mmHg 85%
01:00 +13°C° 0 mm 4 m/s 753 mmHg 87%
02:00 +13°C° 0 mm 3 m/s 753 mmHg 89%
03:00 +14°C° 0 mm 4 m/s 753 mmHg 86%
04:00 +15°C° 0 mm 4 m/s 753 mmHg 82%
05:00 +17°C° 0 mm 4 m/s 753 mmHg 79%
06:00 +17°C° 0.1 mm 4 m/s 753 mmHg 81%
07:00 +17°C° 0.1 mm 4 m/s 753 mmHg 82%
08:00 +17°C° 0.1 mm 5 m/s 753 mmHg 84%
09:00 +17°C° 0.1 mm 5 m/s 753 mmHg 83%
10:00 +19°C° 0.1 mm 5 m/s 753 mmHg 83%
11:00 +19°C° 0.1 mm 6 m/s 753 mmHg 83%
12:00 +20°C° 0.2 mm 5 m/s 753 mmHg 85%
13:00 +20°C° 0.2 mm 5 m/s 753 mmHg 86%
14:00 +20°C° 0.2 mm 5 m/s 753 mmHg 88%
15:00 +20°C° 0.1 mm 4 m/s 753 mmHg 82%
16:00 +21°C° 0.1 mm 4 m/s 753 mmHg 75%
17:00 +21°C° 0.1 mm 3 m/s 753 mmHg 68%
18:00 +20°C° 0 mm 3 m/s 753 mmHg 77%
19:00 +18°C° 0 mm 3 m/s 753 mmHg 86%
20:00 +16°C° 0 mm 3 m/s 754 mmHg 95%
21:00 +16°C° 0 mm 3 m/s 754 mmHg 95%
22:00 +16°C° 0 mm 2 m/s 754 mmHg 95%
23:00 +15°C° 0 mm 2 m/s 754 mmHg 96%

21 Junho, Segunda-feira

Tempo Temperatura Precipitação Vento Pressão Humidade
00:00 +15°C° 0 mm 2 m/s 753 mmHg 95%
01:00 +14°C° 0 mm 2 m/s 753 mmHg 95%
02:00 +14°C° 0 mm 2 m/s 753 mmHg 95%
03:00 +14°C° 0 mm 2 m/s 753 mmHg 95%
04:00 +14°C° 0 mm 2 m/s 753 mmHg 95%
05:00 +14°C° 0 mm 2 m/s 753 mmHg 95%
06:00 +17°C° 0 mm 3 m/s 753 mmHg 81%
07:00 +19°C° 0 mm 3 m/s 754 mmHg 68%
08:00 +21°C° 0 mm 4 m/s 754 mmHg 54%
09:00 +22°C° 0 mm 4 m/s 754 mmHg 51%
10:00 +23°C° 0 mm 5 m/s 754 mmHg 47%
11:00 +25°C° 0 mm 5 m/s 754 mmHg 44%
12:00 +24°C° 0 mm 6 m/s 754 mmHg 43%
13:00 +24°C° 0 mm 7 m/s 754 mmHg 43%
14:00 +23°C° 0 mm 7 m/s 754 mmHg 43%
15:00 +22°C° 0 mm 8 m/s 754 mmHg 47%
16:00 +21°C° 0 mm 8 m/s 754 mmHg 51%
17:00 +20°C° 0 mm 8 m/s 754 mmHg 56%
18:00 +18°C° 0 mm 8 m/s 754 mmHg 62%
19:00 +17°C° 0 mm 8 m/s 754 mmHg 68%
20:00 +16°C° 0 mm 9 m/s 754 mmHg 75%
21:00 +15°C° 0 mm 8 m/s 754 mmHg 74%
22:00 +15°C° 0 mm 8 m/s 754 mmHg 73%
23:00 +13°C° 0 mm 8 m/s 754 mmHg 72%
Mostrar mais